Theta_e
303 303 302 303 303 303 303 302 302 303 303 304 308 312 315 315 314 314 313 311 309 307 306 306 307 307 309 311 312 313 315 317 318 318 318 319 319 319 319 318 318 317 316 315 314 313 312 310 309 307 306 306 305 304 304 304 304 305 305 305 305 305 306 306 307 308 311 315 319 323 325 326 326 326
303 303 303 303 303 304 304 303 303 302 302 303 304 306 310 313 314 313 313 310 308 306 305 305 305 305 305 305 306 306 308 309 310 310 310 310 310 310 310 309 309 308 308 307 306 306 305 305 304 304 304 304 304 304 304 304 304 304 305 305 305 306 307 307 307 307 307 308 311 317 322 325 326 326
303 303 304 304 304 305 305 305 304 304 303 303 303 303 305 309 312 312 312 310 307 305 305 305 305 305 305 305 305 305 305 305 305 305 305 305 305 305 305 305 305 305 305 305 305 305 304 304 304 304 304 304 304 304 305 305 305 305 305 305 305 305 306 307 308 308 307 307 308 312 317 321 323 325
304 304 304 304 305 305 305 306 305 305 305 305 305 304 304 306 309 310 310 309 306 305 305 305 305 305 305 305 305 306 306 306 306 306 306 306 305 305 305 305 305 305 305 305 305 305 305 305 305 305 305 305 305 305 305 305 305 305 305 305 305 305 305 305 307 309 309 308 308 310 314 317 319 321
306 305 305 304 305 305 305 306 306 306 306 306 306 306 305 306 307 307 307 307 306 305 305 305 304 305 305 305 305 305 306 306 306 307 306 306 306 306 306 306 305 305 305 305 305 304 304 304 304 304 304 304 304 305 305 305 305 305 305 305 305 304 304 304 305 307 309 310 309 309 311 314 316 319
309 309 308 306 306 306 305 305 305 306 306 306 306 306 306 306 306 306 306 306 305 305 306 306 306 307 307 306 307 306 306 306 306 306 306 306 307 307 307 307 306 306 306 306 305 305 305 305 305 304 304 304 304 303 303 303 304 304 304 304 305 305 305 305 305 305 307 309 310 310 310 311 314 316
313 312 311 310 309 308 307 307 307 306 306 306 306 306 306 306 306 307 308 309 309 310 310 310 310 311 310 310 310 310 309 308 307 306 306 306 307 307 307 307 307 306 306 306 306 306 306 305 305 305 305 305 304 304 304 303 303 302 302 302 303 303 303 304 304 304 304 305 307 309 311 312 312 313
317 316 314 313 312 312 311 310 310 309 308 307 307 308 308 309 309 311 312 313 312 312 311 311 311 311 311 311 311 311 310 310 309 309 308 307 307 307 307 307 307 307 306 306 306 306 305 305 305 305 305 305 305 305 304 304 303 303 303 302 302 302 302 301 301 302 302 302 302 304 306 308 311 312
319 318 317 316 315 314 313 313 313 313 312 310 310 312 312 313 313 313 314 313 313 312 311 311 311 310 309 309 309 309 309 308 308 309 309 309 308 308 308 308 307 307 307 307 307 306 306 306 305 304 304 304 304 304 304 304 304 304 303 303 303 303 302 302 301 301 301 301 302 302 302 304 305 308
319 319 319 318 317 316 315 315 315 315 314 313 313 313 312 313 313 314 313 313 313 313 312 311 311 310 310 309 309 308 308 307 306 306 307 308 308 309 308 308 308 308 307 307 307 307 306 306 305 305 304 303 303 303 303 303 303 303 303 303 303 303 303 303 302 302 301 301 301 302 303 303 303 304
319 319 318 318 318 317 317 317 316 315 315 315 314 312 311 311 312 313 314 313 313 313 312 312 312 311 310 310 309 309 309 309 308 306 306 305 306 307 308 308 308 308 307 307 307 307 306 306 306 305 305 304 303 303 302 302 302 302 302 303 303 303 303 303 303 302 302 302 301 301 302 303 304 304
319 319 318 316 316 316 317 317 317 316 315 315 314 313 312 312 311 312 313 313 313 313 312 312 311 311 311 310 309 309 309 308 308 307 307 306 304 304 305 306 307 307 306 306 306 306 306 305 305 304 304 304 304 303 302 302 301 301 301 301 301 302 302 302 302 302 302 301 301 301 301 302 303 304
319 319 318 316 316 316 317 318 318 317 316 315 314 314 314 313 312 312 311 312 312 312 312 311 311 311 310 310 309 309 308 308 307 307 307 306 305 303 303 304 305 305 305 305 305 304 304 304 304 303 303 303 303 303 302 302 301 301 300 300 300 300 300 300 300 301 301 301 301 300 300 300 301 302
319 319 318 317 317 317 318 318 318 318 317 316 315 315 314 314 313 313 312 311 311 311 311 311 311 311 310 310 310 309 308 307 307 306 306 305 304 303 303 303 303 303 303 303 303 303 302 302 302 302 302 301 301 301 301 301 300 300 299 299 299 299 299 299 300 300 300 300 300 300 300 300 300 300
318 317 316 316 317 318 319 318 317 316 317 316 316 315 314 313 313 313 313 312 312 311 311 311 311 311 311 310 310 309 308 306 306 305 305 304 303 303 302 303 302 302 302 301 301 301 301 300 300 300 300 300 300 300 300 300 300 299 299 299 299 299 299 299 299 299 299 299 299 299 300 300 300 300
314 314 313 313 314 315 316 317 317 317 317 317 317 316 315 314 314 314 313 313 312 311 311 310 311 311 310 309 309 308 306 305 305 305 304 303 302 302 302 303 302 301 300 299 299 300 299 299 298 299 298 298 299 299 299 299 299 299 298 298 298 298 298 298 298 298 298 298 299 299 299 299 300 300
312 311 311 310 310 311 312 313 316 317 317 318 317 317 316 315 314 313 312 312 311 310 310 309 310 310 309 308 308 307 305 304 304 304 304 303 302 302 302 302 301 300 299 297 296 297 298 297 296 297 297 297 297 298 298 298 298 298 298 298 298 298 298 298 298 298 298 298 298 298 298 299 299 299
312 311 311 311 310 309 309 310 312 314 316 317 317 316 315 314 313 312 311 311 310 309 309 309 309 308 308 307 306 305 304 304 304 303 303 302 302 302 301 300 299 298 297 296 295 295 296 296 295 296 296 297 297 297 297 297 297 297 297 297 297 297 297 297 298 298 298 298 298 298 298 298 298 299
310 311 312 312 311 310 309 309 311 313 315 316 316 315 314 313 312 311 311 310 309 309 308 308 308 307 306 305 304 303 303 303 303 303 303 302 301 300 299 297 296 296 296 295 295 294 295 295 295 295 296 296 296 297 297 297 297 297 297 297 297 297 297 297 297 297 297 297 297 297 297 298 298 298
309 311 312 313 312 311 310 310 311 313 313 315 315 314 312 312 311 310 310 309 309 308 308 307 307 306 305 304 303 303 303 303 303 302 301 300 299 297 295 295 294 294 294 295 294 294 294 295 295 295 296 296 296 296 297 297 297 297 297 297 296 296 296 297 297 297 297 297 297 297 297 297 297 298
309 311 312 313 312 312 311 310 311 312 313 313 312 311 310 310 310 309 309 308 307 307 307 307 306 305 304 304 303 303 303 303 302 300 298 296 295 294 294 294 294 294 294 294 294 294 294 294 294 294 295 295 296 296 296 296 296 296 296 296 296 296 296 296 296 296 297 297 297 297 297 297 297 297
308 310 311 312 311 311 309 309 309 310 310 310 309 309 308 308 308 308 307 307 307 307 307 306 305 305 304 304 304 303 303 302 300 297 295 294 294 293 293 293 293 294 294 294 294 294 294 293 293 293 294 294 295 295 295 295 295 296 296 295 295 295 295 295 295 295 296 296 296 296 296 296 297 297
306 308 309 309 309 308 307 306 306 307 307 308 308 307 307 306 306 306 306 306 306 306 305 304 304 304 304 304 303 302 300 298 295 294 293 293 293 293 293 293 293 293 294 293 293 293 293 293 292 293 293 293 294 294 294 294 294 294 294 295 295 295 295 295 295 295 295 295 295 295 295 295 296 296
304 305 305 306 307 306 306 306 306 306 306 307 307 307 306 306 306 306 306 306 305 304 304 303 303 303 302 301 299 297 295 294 293 293 293 293 293 292 292 292 292 293 293 293 292 292 292 292 292 292 292 293 293 293 293 293 293 293 293 293 294 294 294 295 295 295 295 295 295 295 295 295 295 295
304 305 305 305 306 306 306 305 305 306 306 306 306 306 306 306 306 305 305 305 304 303 303 302 300 299 297 295 294 294 293 293 293 293 293 293 293 292 292 292 292 292 292 292 291 291 292 292 292 292 292 292 292 292 292 292 292 292 292 293 293 293 294 295 295 295 295 295 295 295 295 295 294 294
304 306 306 305 305 305 306 305 305 305 305 305 305 305 305 304 304 304 304 303 301 300 298 296 295 294 293 293 293 293 294 293 294 293 293 293 293 292 292 292 291 291 292 292 291 291 291 291 291 292 292 292 292 292 292 292 292 292 292 292 292 293 293 294 294 295 295 295 295 295 295 294 294 294
305 306 307 306 306 306 305 305 304 304 304 303 304 303 303 303 302 301 300 298 296 295 294 293 293 293 293 293 293 293 293 293 294 294 293 293 293 292 292 292 292 291 292 292 291 291 291 291 291 291 291 291 291 291 291 291 291 291 292 292 292 292 293 293 294 294 294 294 294 295 294 294 294 294
305 306 306 306 305 305 304 303 302 302 302 302 302 302 301 300 299 297 295 294 293 293 293 293 293 293 294 293 293 293 293 293 293 293 293 293 293 292 292 292 292 292 292 292 291 291 291 291 290 290 290 290 291 291 291 291 291 291 291 292 292 292 292 293 293 293 294 294 294 295 295 295 295 295
305 305 305 304 304 303 302 302 301 301 301 300 300 298 297 295 294 293 293 293 293 293 293 293 294 294 294 293 293 293 293 293 293 293 292 292 292 292 292 292 292 292 292 292 291 291 291 290 290 290 290 290 290 290 290 291 291 291 291 291 291 291 292 292 293 293 294 294 294 294 295 295 295 295
305 305 304 304 303 302 301 301 300 299 297 296 295 294 293 293 293 293 293 293 293 294 294 294 294 293 293 293 293 293 293 293 293 292 291 291 291 291 291 290 291 291 291 291 291 290 290 290 289 289 289 289 289 290 290 290 290 290 290 290 291 291 291 292 292 293 293 293 294 295 295 295 295 294
305 304 303 303 302 301 301 299 297 295 293 293 293 293 293 293 293 293 293 294 294 294 293 293 293 293 293 293 293 293 293 292 292 291 290 290 290 289 289 289 289 290 290 290 290 289 289 289 289 289 289 289 289 289 289 290 290 290 290 290 291 291 291 291 292 292 292 293 293 294 294 294 294 294
304 303 303 302 301 299 297 295 293 293 293 293 293 293 293 293 293 294 294 294 293 293 293 293 293 293 293 293 293 292 292 291 291 290 289 289 289 289 288 288 288 289 289 289 289 289 289 289 289 289 289 289 289 289 289 289 289 290 290 290 290 290 291 291 291 291 292 292 292 293 293 293 293 293
302 302 301 300 297 295 294 293 293 293 293 293 293 293 293 294 293 293 293 293 292 292 292 292 292 292 292 293 292 292 291 291 290 290 289 289 289 289 289 288 289 289 289 289 290 290 290 289 289 289 289 289 289 289 289 289 289 290 290 290 290 290 291 291 291 291 291 292 292 292 292 293 293 293
301 300 299 296 294 293 293 292 292 293 293 293 293 294 294 293 293 292 292 292 292 292 292 292 292 292 292 292 291 291 291 290 290 290 290 289 289 289 289 289 289 289 289 289 289 290 290 289 289 289 289 289 289 289 289 289 290 290 290 290 290 291 291 291 291 291 292 292 292 292 292 292 293 293
300 298 296 294 293 292 292 292 293 293 293 294 294 294 293 293 292 292 291 291 291 291 291 291 291 291 291 291 291 291 290 290 290 290 290 290 290 289 289 289 289 289 289 289 289 290 289 289 289 289 289 290 290 289 290 290 290 290 290 290 290 291 291 291 291 292 292 292 292 292 292 293 293 293
297 295 294 293 292 292 292 293 293 293 294 294 294 293 293 292 291 291 291 291 291 290 290 291 291 291 291 291 290 290 290 290 290 290 290 290 290 290 290 290 290 290 290 290 290 290 290 290 289 289 289 290 290 290 290 290 290 290 290 290 290 291 291 291 291 292 292 292 292 292 292 293 293 293
294 293 292 292 292 292 293 293 293 294 294 293 293 292 292 291 291 291 290 290 290 290 290 290 291 290 290 290 290 290 290 290 290 290 290 290 291 290 291 290 291 291 290 290 290 290 290 290 290 289 289 290 290 290 290 290 290 290 290 290 290 291 291 291 291 291 292 292 292 292 293 293 293 294
293 292 292 292 292 293 293 293 293 293 293 292 291 291 291 291 291 291 291 290 290 290 290 290 290 290 290 290 290 290 290 290 290 290 290 290 291 291 291 291 291 291 290 290 291 291 291 291 291 290 290 289 289 290 290 290 290 290 290 290 290 290 290 290 290 291 292 292 292 293 293 293 294 294
292 292 292 292 293 293 293 293 293 292 291 291 291 291 291 291 291 291 290 290 290 290 289 289 290 290 290 290 290 290 290 290 290 290 290 290 291 291 291 291 291 291 290 291 291 291 291 291 291 291 290 289 289 290 289 290 290 291 291 291 291 291 291 291 290 291 291 292 292 293 293 294 294 294
292 292 293 293 293 293 293 292 292 291 291 290 290 290 290 290 291 290 290 290 290 289 289 289 289 290 290 290 290 290 290 290 290 290 290 291 291 291 291 291 291 291 291 291 292 292 292 292 292 291 291 290 290 290 290 290 291 292 291 291 291 291 291 291 291 291 291 292 292 293 293 293 294 294
292 293 293 293 293 293 292 291 291 291 290 290 289 289 289 290 290 290 290 290 290 290 290 290 289 290 290 290 290 290 290 290 290 290 290 291 291 291 291 291 291 291 291 292 292 293 293 292 292 292 292 291 291 291 291 291 291 292 291 291 291 291 291 291 291 291 291 292 292 293 293 293 293 294
293 293 293 293 292 292 292 291 290 290 290 290 289 289 288 289 290 290 290 290 290 290 290 290 290 290 290 290 290 290 290 290 290 290 290 291 291 291 291 291 291 291 291 292 292 293 293 293 293 292 292 292 292 291 291 291 291 291 291 291 291 291 291 291 291 292 292 292 292 293 293 293 293 293
293 293 293 292 292 292 291 291 290 289 290 290 289 288 288 288 289 290 290 290 290 290 290 290 289 290 290 290 290 290 290 289 290 290 290 290 291 291 291 292 292 292 292 292 293 293 293 293 293 293 292 292 292 291 291 291 291 291 291 291 291 291 291 292 292 292 292 292 293 293 293 293 293 293
292 293 292 292 292 291 291 290 290 289 289 289 289 288 288 288 288 289 290 290 290 290 290 290 290 290 290 290 290 290 290 289 289 289 290 290 291 291 292 292 292 292 292 292 292 293 293 293 293 293 292 292 292 292 291 291 291 291 291 291 291 291 292 292 292 293 293 293 293 293 293 293 293 293
292 292 292 292 291 291 290 290 290 290 289 289 289 288 288 287 288 289 290 290 290 290 290 290 290 290 290 290 290 290 290 289 289 289 289 290 291 291 292 292 292 292 292 292 293 293 293 293 293 293 292 292 292 292 292 291 291 291 291 291 291 292 292 292 292 293 293 293 293 293 293 293 294 294
Wind_Speed
8 8 8 9 8 9 9 8 8 7 6 6 8 10 11 10 10 11 10 8 7 7 6 5 4 3 2 1 0 1 2 3 3 5 6 7 8 9 10 11 12 13 14 15 16 16 17 17 17 17 17 17 17 17 17 17 17 18 18 18 18 19 19 18 19 20 20 20 20 21 22 23 24 24
8 8 8 8 8 9 10 9 9 8 7 6 5 7 10 10 9 9 10 9 7 6 6 4 4 3 2 2 1 1 2 4 4 5 6 7 8 9 10 11 12 13 14 15 16 16 16 16 16 16 16 16 16 16 17 17 17 18 18 18 18 17 17 16 16 17 19 20 20 21 21 22 23 24
8 7 7 7 7 8 9 9 10 9 8 8 7 6 6 9 9 8 8 9 8 6 5 4 4 4 3 3 3 3 3 4 4 5 6 7 7 8 9 10 11 11 12 13 13 14 14 14 15 15 16 16 16 17 17 18 18 19 19 19 19 18 17 17 16 16 17 18 19 20 20 21 22 24
7 7 7 7 6 7 7 8 8 9 9 8 8 8 7 7 8 8 7 8 8 6 5 4 3 3 4 4 4 3 4 4 4 5 6 6 7 8 9 10 10 11 11 11 12 12 13 14 14 15 15 16 17 17 18 18 18 19 19 19 19 19 18 17 17 17 17 17 18 19 20 20 21 22
5 5 5 5 5 6 6 6 6 6 6 7 7 8 8 7 8 7 7 7 7 5 3 3 3 3 4 5 5 5 5 5 5 5 6 7 8 8 9 10 11 11 11 12 12 13 13 14 14 15 15 16 17 17 18 18 19 19 19 19 19 19 18 17 17 17 18 18 19 19 20 21 21 22
4 4 4 3 3 3 3 3 4 4 3 4 4 5 6 6 6 6 6 5 5 3 2 3 4 5 6 6 7 7 8 8 8 8 8 8 9 9 10 11 11 12 12 12 13 13 14 15 15 16 16 17 17 18 19 19 20 20 20 20 20 19 19 18 18 17 18 19 20 20 21 22 22 22
1 2 3 3 3 2 2 2 2 2 2 2 2 2 2 2 3 4 4 3 3 4 4 5 6 7 8 8 9 10 10 10 11 11 11 11 11 11 11 11 12 12 13 13 14 15 15 16 17 17 18 18 18 19 20 20 21 21 22 22 22 22 22 21 21 20 20 20 20 21 22 22 23 24
3 3 4 4 3 3 3 3 2 2 2 2 2 3 3 3 2 2 3 6 8 8 7 6 6 8 9 9 10 11 11 11 11 12 12 12 12 12 12 12 13 13 13 14 14 15 16 17 18 19 19 20 20 20 21 21 22 22 23 23 23 23 23 24 24 24 23 23 22 22 23 24 25 25
6 7 7 7 6 6 5 5 3 2 2 2 2 3 4 4 4 4 5 7 9 9 7 7 7 8 9 9 10 11 12 13 14 14 13 13 13 13 14 14 14 15 15 15 16 16 17 18 19 20 20 21 22 22 22 23 23 24 24 24 24 24 24 24 24 24 24 24 23 23 24 25 26 27
9 9 10 11 10 9 8 8 6 3 3 4 4 4 4 5 5 5 6 8 9 9 7 7 8 9 10 11 12 13 14 15 16 16 16 16 15 15 15 16 17 17 18 18 18 18 19 20 20 21 22 22 23 23 24 24 25 25 26 26 26 25 25 25 24 24 24 24 24 24 24 25 26 27
11 10 11 11 11 10 10 10 9 7 6 7 8 8 7 7 7 7 7 8 8 8 8 7 8 9 11 13 14 15 16 18 19 20 20 20 19 19 18 18 19 20 21 21 21 22 22 22 23 23 23 24 24 25 25 25 25 26 27 27 27 27 27 26 26 25 25 25 25 25 25 25 25 26
13 12 12 11 11 11 13 14 14 13 11 11 10 10 10 10 10 10 10 9 9 8 8 8 8 10 12 13 14 16 17 19 21 22 23 23 24 23 22 22 22 22 23 24 24 25 26 25 26 27 26 26 26 26 26 26 26 27 27 27 28 28 28 28 28 27 27 26 26 27 27 27 27 27
16 15 14 14 15 15 17 18 19 18 17 15 13 13 13 13 13 13 13 13 11 10 9 9 10 11 12 13 15 16 17 18 20 23 25 25 25 25 24 25 25 24 24 24 24 25 27 27 27 28 29 29 29 28 27 27 26 27 27 27 28 28 28 28 29 29 28 28 28 28 28 29 30 30
16 15 14 17 19 19 20 21 19 19 20 19 17 16 15 15 16 16 16 16 15 13 11 12 13 12 13 15 16 18 19 21 22 24 25 26 27 26 25 25 26 27 26 27 26 25 26 27 27 27 29 30 30 29 28 28 27 27 27 27 27 27 28 28 29 29 29 29 29 29 29 29 30 32
13 12 10 14 16 17 19 20 17 18 21 22 21 20 18 17 19 20 20 19 18 17 16 16 15 15 15 17 17 18 21 23 24 25 26 27 27 27 28 28 28 28 29 29 29 28 28 29 28 27 27 28 28 28 28 28 28 28 27 27 26 26 27 27 28 29 29 29 30 30 30 30 30 31
10 10 9 11 12 13 16 17 15 15 18 20 21 21 20 20 21 22 23 22 20 19 19 18 18 17 17 17 18 19 21 23 25 26 28 29 29 29 30 30 30 30 31 31 31 30 28 29 30 28 28 29 28 27 27 27 28 28 28 28 27 26 26 27 27 28 29 29 29 30 30 30 30 31
10 10 9 10 11 12 13 15 15 14 16 17 18 20 22 23 23 23 23 22 21 20 19 19 18 17 16 17 19 20 22 23 24 27 29 30 31 31 31 31 31 31 31 32 33 32 30 30 31 30 28 30 30 29 28 27 27 28 28 28 28 27 27 27 27 28 28 29 29 30 30 31 31 31
11 10 9 9 10 11 12 13 14 15 16 17 17 18 20 21 21 22 22 22 20 20 20 19 17 16 16 18 20 21 22 24 26 28 30 31 31 32 32 32 32 31 31 31 33 34 33 33 34 32 30 30 29 28 29 28 27 28 28 28 27 27 27 28 28 29 29 29 29 30 30 31 32 32
13 12 11 10 11 11 12 12 14 14 15 16 15 14 14 16 19 21 22 22 21 20 20 18 17 17 18 20 21 22 24 27 29 31 31 31 32 33 33 34 33 33 33 32 31 33 33 33 34 34 33 31 30 28 28 28 28 28 29 29 27 26 26 27 28 29 29 29 29 30 30 31 31 32
13 13 12 12 11 12 12 12 12 12 12 12 11 10 10 14 18 20 21 21 21 20 19 19 19 20 21 22 23 26 28 30 31 32 32 32 32 33 33 34 33 31 32 34 33 33 32 30 30 32 33 33 33 31 29 28 28 28 28 27 26 26 26 27 28 28 29 29 29 29 29 30 31 31
12 12 12 12 12 12 12 11 10 9 8 7 7 8 10 14 18 20 20 20 20 19 19 20 21 22 23 25 27 30 32 32 32 31 31 30 31 31 31 30 28 28 30 33 31 28 27 26 27 30 32 33 33 32 31 29 27 26 25 24 24 24 25 26 27 27 27 28 28 28 28 29 31 31
11 11 12 12 12 12 12 12 10 7 6 6 7 9 13 16 18 19 20 20 20 20 20 21 23 25 27 29 31 33 33 32 32 31 30 30 31 31 29 28 27 27 26 25 23 20 20 23 24 25 28 28 28 28 28 26 23 22 21 22 24 25 26 27 27 28 28 29 29 29 28 28 29 30
10 11 12 12 12 12 12 11 9 8 7 8 10 13 15 17 18 18 19 20 20 21 22 24 26 28 30 31 32 32 32 31 31 30 30 30 30 29 28 27 25 23 19 17 16 16 17 20 20 19 20 22 22 20 20 19 18 17 17 18 20 22 24 26 27 28 29 29 29 29 27 26 27 28
10 11 11 11 10 10 10 10 9 8 9 11 13 15 16 17 18 19 19 20 21 22 24 26 28 29 30 30 29 29 30 29 30 29 29 28 27 27 26 23 21 20 18 15 15 17 18 18 17 16 16 19 20 17 15 16 16 16 15 15 17 18 20 21 22 24 26 27 28 27 26 25 25 26
9 9 9 9 9 9 9 9 9 10 11 12 14 15 16 18 19 20 21 22 23 25 26 26 27 27 27 27 28 28 28 28 28 28 28 27 26 26 24 20 18 20 19 15 17 21 21 18 18 17 16 18 20 19 18 17 16 15 15 16 18 18 18 18 18 18 19 21 22 22 22 22 22 24
7 7 7 8 8 8 8 9 10 11 12 13 14 16 17 19 20 22 23 23 24 24 25 25 26 26 26 27 27 27 27 27 27 27 26 26 26 26 25 21 20 21 20 19 19 21 21 19 18 17 17 18 19 20 19 18 17 15 15 16 17 17 16 16 16 15 15 16 17 17 18 19 20 22
6 7 8 8 8 9 10 12 13 15 16 16 17 19 20 21 21 21 22 22 23 24 25 25 25 26 26 26 26 26 26 27 27 27 27 27 27 27 26 24 24 25 25 25 22 21 20 20 18 17 18 19 20 20 20 19 17 16 16 17 17 17 16 15 16 16 15 16 16 16 16 17 17 19
6 7 8 9 10 11 13 15 17 18 18 18 19 19 20 21 21 21 21 22 23 23 24 24 24 24 25 25 25 26 26 26 27 27 27 27 27 26 26 26 26 27 27 27 25 23 22 20 19 18 18 18 20 21 20 19 18 18 17 17 17 17 16 16 16 16 16 15 15 15 15 14 14 15
9 9 9 10 11 12 14 15 16 16 16 16 17 18 19 19 20 20 21 21 22 22 22 23 23 23 24 24 24 25 26 26 26 26 26 26 26 26 26 26 26 26 26 26 25 24 22 20 18 17 17 17 19 20 20 20 19 17 17 17 18 17 17 17 17 17 16 15 15 16 16 15 14 15
10 10 10 11 12 12 13 13 14 14 15 15 16 17 18 18 19 19 20 20 21 21 21 22 22 22 23 23 23 24 25 25 25 24 24 24 23 23 23 23 23 23 23 22 20 19 19 18 17 16 16 17 18 18 19 19 19 17 16 16 17 17 16 15 15 16 16 16 16 16 16 16 16 17
10 11 12 12 12 12 12 13 13 14 14 15 16 16 17 18 18 19 19 19 20 20 20 21 21 21 21 21 22 22 23 23 22 22 21 20 19 18 17 18 19 19 17 15 14 13 15 15 15 15 15 15 16 17 16 17 18 18 17 16 16 16 16 16 16 17 16 16 17 17 18 19 19 19
11 11 12 12 11 11 11 12 12 13 14 15 15 16 16 17 17 18 17 17 18 19 20 20 20 20 20 20 21 22 22 21 20 19 18 17 16 15 14 15 16 15 14 13 11 11 12 12 13 13 14 14 16 16 15 16 18 18 17 16 16 16 17 17 18 18 17 17 19 18 17 19 21 20
11 11 11 10 10 9 10 11 11 12 13 14 15 15 15 15 15 16 16 16 17 18 19 19 20 20 20 21 21 21 21 21 20 18 18 18 17 16 16 16 16 15 15 14 13 11 11 11 12 13 14 14 15 15 15 18 19 17 16 16 16 16 16 15 16 16 16 17 19 19 18 19 19 20
10 10 9 9 9 9 9 10 10 11 12 12 13 13 13 12 13 14 15 16 17 19 19 20 20 20 20 20 20 20 20 21 20 19 19 20 19 19 18 17 18 17 16 16 15 13 12 11 11 13 14 14 16 15 15 18 19 17 14 14 15 15 15 13 12 13 13 13 15 17 18 18 17 17
9 8 8 8 8 8 8 9 9 9 10 10 10 11 11 12 13 14 15 16 17 18 19 20 20 20 20 19 19 20 20 21 21 20 21 21 21 20 19 19 20 20 19 18 17 15 13 12 12 14 15 15 16 15 15 16 17 15 13 13 13 14 14 13 11 12 12 12 12 14 16 18 17 16
8 7 7 7 7 7 7 7 7 7 8 9 10 11 11 12 12 13 14 16 17 17 18 19 19 20 20 19 19 20 21 21 22 22 22 22 21 21 20 20 22 22 22 21 19 16 15 15 15 16 16 15 15 15 14 14 15 14 12 12 12 12 12 12 11 12 12 12 11 12 15 17 17 15
7 7 6 6 6 5 5 5 5 5 7 9 10 12 12 13 13 13 14 16 16 16 17 18 18 19 20 19 19 20 21 21 22 22 23 22 21 21 21 21 22 23 23 22 21 19 18 19 18 17 16 16 16 16 13 12 14 15 13 11 11 11 11 12 12 13 13 12 11 12 14 16 16 15
7 6 5 5 5 3 2 2 4 6 8 10 12 13 13 14 14 14 15 15 16 16 17 18 19 19 19 19 19 20 20 20 21 22 23 22 21 22 22 22 23 23 23 22 22 21 21 20 19 18 16 15 16 16 13 12 13 15 15 14 13 14 14 15 14 14 14 12 11 12 13 15 15 14
7 6 5 4 2 0 2 4 6 8 10 11 12 14 15 15 15 16 15 15 16 17 18 19 19 19 19 19 19 19 20 20 21 22 22 21 21 22 22 23 23 23 23 23 22 21 21 20 18 17 15 15 15 15 14 15 17 18 17 17 16 15 16 16 15 15 15 13 11 11 13 13 11 10
7 6 4 2 2 3 5 6 8 9 10 11 13 14 15 16 17 17 17 17 17 18 18 19 20 21 20 19 18 18 19 20 21 21 21 21 21 21 22 22 22 22 22 22 22 21 20 18 17 16 15 15 16 16 16 18 20 20 18 16 14 13 14 14 14 14 14 12 11 12 13 10 6 5
6 4 3 3 4 6 7 8 8 8 9 10 12 13 15 16 17 18 19 19 18 18 18 19 20 22 23 21 20 19 19 20 20 20 20 20 21 21 21 21 21 21 21 21 21 20 19 17 16 16 15 16 17 16 17 18 19 18 16 13 11 11 12 12 12 11 10 10 11 11 10 7 5 5
5 3 4 5 6 7 7 8 7 8 9 10 11 13 14 15 17 18 20 20 20 19 18 18 20 23 25 24 22 19 19 19 19 20 20 20 20 21 21 21 21 21 21 20 20 19 17 15 15 15 15 16 16 16 17 17 17 16 13 10 8 8 10 10 10 10 8 8 8 8 6 4 4 5
4 4 6 7 7 7 7 7 7 7 8 9 10 12 14 15 17 18 20 21 21 21 21 21 23 25 26 25 22 19 18 18 19 20 20 19 19 20 21 21 21 21 20 19 18 17 16 15 14 14 15 15 14 14 14 14 13 12 10 7 6 7 8 8 8 7 5 4 6 6 3 1 2 4
5 6 7 7 6 7 6 6 7 7 8 9 10 12 13 15 16 18 19 20 20 21 22 23 25 26 26 25 23 21 19 18 18 18 19 19 19 20 20 21 21 20 19 18 17 16 15 14 14 13 13 12 12 12 12 11 10 9 7 5 6 7 6 5 4 3 3 3 3 4 4 2 1 3
6 6 7 6 6 6 5 6 7 7 8 9 10 12 13 14 15 16 17 18 19 21 22 23 25 25 26 25 23 22 20 19 18 18 17 18 19 19 19 20 20 19 17 16 15 14 13 13 12 12 12 11 10 10 10 9 8 6 5 5 5 4 4 3 2 2 2 3 3 4 3 2 1 2
Wind_Direction
69 71 76 80 82 84 82 81 86 91 104 137 166 175 175 164 153 147 132 114 115 123 121 118 118 124 131 138 173 295 292 292 299 298 298 300 301 303 305 306 307 308 308 308 307 307 307 306 306 304 302 300 299 298 297 295 293 290 287 283 281 279 278 274 271 267 263 261 261 261 260 258 258 261
63 64 72 80 84 87 86 86 88 90 94 103 132 172 187 182 172 167 151 132 124 122 117 112 104 98 98 98 69 341 307 303 304 304 304 304 304 307 308 308 308 308 308 308 308 308 308 308 308 306 304 302 301 300 299 299 297 295 293 291 288 285 283 280 274 270 266 263 261 261 261 259 255 254
49 51 57 66 73 79 81 84 88 89 91 96 100 118 165 183 187 190 173 150 139 130 118 104 86 70 61 54 36 16 358 343 333 327 324 321 320 320 317 315 314 312 312 311 311 310 309 309 308 306 306 305 304 303 302 301 299 298 297 295 293 290 286 283 279 274 270 266 263 261 261 261 258 255
34 38 40 45 52 61 64 69 81 90 94 96 96 96 113 154 171 181 179 159 144 135 121 99 72 53 46 35 18 5 359 352 343 336 332 331 329 326 321 318 317 315 314 313 312 311 310 309 308 307 306 305 305 304 303 303 301 300 299 297 295 293 290 284 278 274 272 269 266 263 262 262 261 259
20 21 25 28 29 40 49 51 59 76 88 93 98 99 103 122 142 156 167 155 137 125 108 79 42 18 12 2 350 343 342 339 337 335 332 330 327 322 319 317 317 316 315 314 313 311 310 309 309 308 307 306 305 304 304 303 303 302 301 300 299 297 295 290 282 274 270 269 268 266 264 263 262 262
6 358 359 2 3 14 27 31 36 41 52 71 86 92 99 111 123 133 144 140 122 96 53 19 2 349 344 339 332 328 328 328 329 331 329 325 320 317 317 315 314 314 313 313 312 311 310 309 308 307 305 304 303 303 302 301 301 300 299 299 299 298 296 294 290 283 274 269 267 266 266 265 263 262
331 326 323 327 323 321 327 334 348 358 5 19 24 36 59 80 95 102 100 78 43 15 353 341 339 336 333 332 331 328 326 325 325 325 323 322 320 318 316 313 312 312 312 312 311 310 310 308 307 305 303 302 301 300 299 298 298 297 296 296 295 294 293 292 290 288 283 277 270 266 264 263 263 262
290 294 288 287 285 284 290 295 308 319 311 314 342 355 354 352 4 22 20 9 2 0 359 352 346 342 339 339 338 337 334 330 326 322 319 318 316 314 312 309 308 307 306 307 307 308 308 307 306 304 302 301 299 297 296 295 294 293 293 293 293 292 292 291 290 288 286 283 277 272 267 263 262 262
281 288 285 279 270 261 264 264 262 275 291 304 329 339 334 327 326 326 329 341 349 355 4 5 0 358 356 354 351 348 345 339 333 326 320 315 311 309 307 305 303 304 304 304 304 305 305 305 305 304 303 302 300 298 296 295 293 292 291 290 290 290 291 290 290 289 287 284 281 277 273 268 265 263
272 278 281 281 275 267 265 262 254 255 276 283 283 283 283 285 295 303 306 316 329 335 338 344 350 353 352 350 347 347 347 343 339 334 325 316 309 305 304 303 302 301 300 300 300 300 300 300 300 300 300 300 300 299 298 297 295 293 291 290 289 289 288 287 286 286 285 285 282 280 277 273 270 267
265 269 273 273 271 271 272 269 262 258 260 266 269 267 264 266 270 275 281 292 305 311 313 321 330 334 334 334 334 337 339 339 339 338 334 327 318 311 307 306 304 302 302 301 299 298 297 297 296 295 294 295 295 297 298 297 296 294 292 291 290 289 288 286 285 283 281 281 280 279 278 275 273 270
259 262 264 262 261 269 275 271 264 257 252 254 262 265 266 266 267 269 273 277 281 285 292 299 308 316 321 324 326 329 333 334 333 334 336 333 327 319 314 310 307 306 306 305 303 302 299 299 299 297 295 294 293 294 296 295 295 294 292 291 290 289 288 286 285 283 280 278 276 275 274 273 273 271
255 252 251 253 258 266 269 265 261 258 253 250 254 260 265 267 268 270 272 272 271 272 278 284 293 305 312 316 320 322 325 328 328 330 331 330 326 321 316 312 309 306 305 303 302 301 300 299 300 299 298 296 295 295 295 294 293 292 291 290 289 288 286 285 284 283 281 279 276 274 271 270 270 269
267 263 259 259 262 266 265 261 259 259 255 252 251 254 260 266 269 268 267 267 268 269 272 277 286 297 302 308 314 316 319 323 326 328 329 327 325 321 317 315 312 308 307 306 303 301 301 300 299 298 297 296 295 296 295 295 294 293 291 289 287 286 284 282 281 281 280 280 278 275 273 271 269 268
289 293 285 273 272 272 270 271 272 265 258 254 252 252 254 260 264 266 266 268 269 270 271 276 284 291 296 304 310 311 314 320 324 326 327 324 322 320 317 316 314 310 310 310 307 305 304 303 300 298 296 294 293 293 293 293 294 294 293 291 288 285 283 281 280 279 279 278 278 277 275 273 271 270
302 307 303 290 286 284 281 285 285 271 258 255 255 254 252 254 257 262 266 268 269 271 274 278 283 287 294 302 305 306 311 317 320 323 323 320 317 316 314 313 312 311 311 311 309 307 306 305 303 301 300 298 295 293 291 290 291 291 292 292 290 287 284 281 279 278 277 276 276 275 275 275 274 272
300 303 303 296 291 288 286 287 287 278 267 262 259 255 251 251 253 258 263 267 270 273 274 277 281 286 292 298 301 305 310 314 317 318 317 315 313 312 310 309 309 310 311 312 311 308 307 306 304 302 301 300 299 297 295 292 290 289 289 288 288 287 285 282 279 277 275 274 273 274 274 274 274 274
294 296 298 298 295 291 287 284 282 279 275 270 265 257 252 250 252 256 261 266 269 271 273 278 285 291 296 299 302 306 309 313 315 314 313 312 311 309 307 306 307 308 309 310 310 309 308 308 306 304 302 299 298 297 296 294 292 291 289 287 286 284 281 279 277 276 274 273 273 272 272 273 274 274
287 289 292 296 299 298 293 286 281 280 279 274 268 260 254 253 253 255 261 266 269 271 276 283 291 296 299 302 304 307 310 312 311 310 309 309 308 307 307 307 309 310 309 310 310 309 307 306 305 304 303 301 298 297 295 294 293 291 290 289 287 283 278 275 274 274 274 274 274 273 272 272 272 272
281 283 285 288 292 294 293 287 281 281 281 277 272 268 262 259 258 260 264 267 271 276 282 289 294 298 301 303 306 308 310 310 310 310 311 310 309 308 309 310 311 311 309 309 310 308 306 305 304 303 303 302 301 301 299 296 293 291 289 289 287 283 279 277 275 274 273 273 273 273 274 274 273 272
281 282 282 282 283 286 289 288 283 280 280 279 278 274 266 262 262 264 267 270 274 280 286 291 295 299 302 304 306 307 307 308 309 310 310 310 309 309 309 309 308 307 307 308 308 306 304 305 306 305 303 303 302 303 302 300 297 291 287 285 284 282 281 281 280 278 276 274 273 273 273 274 275 275
284 281 279 278 281 286 291 293 294 298 300 287 271 264 262 261 261 264 269 274 280 285 289 294 298 301 302 303 304 305 305 306 307 306 306 306 305 306 306 304 304 304 305 306 306 301 300 304 305 304 303 302 302 302 304 303 297 290 284 281 280 279 279 279 279 279 279 278 276 275 273 273 274 274
288 285 285 288 293 298 302 304 308 313 311 293 276 267 263 263 265 269 274 280 285 290 295 299 301 301 301 301 301 302 302 303 303 303 303 303 303 303 302 301 301 301 299 300 301 298 297 302 304 303 302 301 299 300 300 297 292 289 288 285 282 281 280 278 277 277 277 277 276 275 273 272 272 273
295 295 297 300 304 309 312 313 311 305 297 289 282 276 272 273 276 279 282 286 291 295 298 299 299 298 298 299 300 300 301 302 303 303 304 303 303 302 300 297 294 289 287 290 294 293 294 297 296 294 292 290 290 292 293 290 288 290 290 288 288 289 289 287 284 282 280 278 276 276 275 271 269 270
293 294 298 302 304 305 305 305 302 295 287 281 279 278 278 280 282 284 287 291 294 296 296 297 297 298 299 301 302 303 304 304 304 304 303 303 302 300 297 292 285 283 283 284 286 289 292 293 290 289 286 282 283 288 289 288 288 288 288 288 290 293 295 295 292 288 285 282 281 281 280 274 268 266
279 276 284 294 297 295 293 294 295 292 287 282 281 282 284 286 287 289 292 294 296 297 299 300 302 304 306 306 306 306 305 304 303 302 301 299 297 294 291 287 282 282 284 285 286 287 287 285 284 285 284 282 283 286 288 287 287 288 287 287 289 291 292 291 289 286 284 284 284 281 277 273 269 265
274 267 271 280 287 287 289 294 295 292 289 286 286 288 290 293 294 295 297 298 300 302 304 306 307 308 308 307 306 305 304 302 302 301 299 296 294 292 291 289 286 286 288 290 289 284 279 279 278 278 279 282 284 285 285 286 287 288 288 286 285 286 285 285 285 284 283 282 283 281 277 277 275 271
270 264 265 272 280 285 290 294 296 295 294 292 293 295 297 298 299 300 302 303 304 305 306 307 307 307 306 306 306 305 304 304 304 303 302 300 298 297 296 294 292 291 292 292 289 284 278 275 275 274 275 277 279 280 282 284 286 287 288 287 285 283 281 281 281 281 282 281 282 283 283 283 280 275
266 263 267 274 282 288 294 299 301 301 301 300 300 300 301 302 303 304 305 307 307 307 308 307 308 308 309 309 310 310 309 310 310 309 307 305 304 303 302 300 298 297 296 293 290 287 282 277 274 274 273 272 273 276 279 283 284 285 284 284 285 284 283 281 280 280 280 279 280 281 281 278 274 271
266 266 273 280 286 290 297 303 306 306 305 304 304 304 305 307 308 309 309 309 309 310 311 312 314 314 314 315 315 314 315 316 316 315 312 311 311 310 307 304 303 302 301 297 291 286 282 278 275 273 272 272 272 273 276 279 282 282 282 282 285 287 287 285 283 281 279 278 278 278 275 271 271 272
267 269 276 280 283 287 295 302 304 305 305 307 309 311 312 312 311 310 310 311 313 316 318 318 318 318 318 319 320 321 323 325 325 323 321 319 317 314 310 307 306 307 305 300 291 284 280 279 276 272 271 271 271 273 274 276 279 281 282 282 281 282 284 286 285 283 281 280 278 276 272 269 271 276
264 269 274 277 281 290 297 301 303 306 310 313 315 315 314 313 312 313 315 319 323 325 325 324 324 324 325 327 330 331 332 332 331 329 326 322 317 313 310 306 306 307 306 303 299 291 284 281 277 274 273 271 272 274 275 274 276 278 281 282 280 279 281 283 285 285 285 282 280 277 272 268 270 273
264 271 275 278 284 291 296 299 304 310 314 315 315 313 313 315 319 322 325 329 330 331 332 333 333 333 334 335 336 336 335 333 331 328 326 323 319 315 312 308 306 307 307 306 307 302 293 285 281 280 278 275 274 274 273 276 278 279 279 282 283 282 282 282 283 286 286 283 281 280 274 268 266 267
266 273 275 277 282 287 293 301 307 312 314 314 314 317 321 326 329 329 331 333 335 337 340 340 340 339 338 338 338 336 333 331 329 327 327 327 325 321 317 312 310 311 309 307 309 308 301 293 288 287 285 282 280 277 273 276 281 282 281 282 283 283 285 286 284 287 288 284 283 283 279 275 272 272
263 268 270 273 278 285 294 302 307 312 315 317 322 330 336 336 334 333 334 335 337 340 342 342 341 341 339 338 337 335 332 330 330 330 331 331 329 325 320 314 313 315 313 309 310 309 302 295 295 296 295 292 288 284 281 284 288 287 282 280 281 282 284 286 285 287 289 289 286 284 284 285 287 287
253 255 257 265 276 285 293 303 313 320 327 335 344 349 349 345 341 337 335 333 335 338 337 337 339 341 340 340 339 336 334 332 331 330 329 329 329 326 322 318 316 317 314 311 311 308 302 299 300 298 296 293 288 286 289 296 298 294 285 279 281 284 284 284 284 283 284 288 287 284 285 289 293 293
239 244 250 260 271 281 295 315 333 345 356 5 8 5 360 354 347 341 335 333 333 331 330 334 340 343 342 342 340 337 334 330 328 327 327 328 328 326 322 319 317 315 313 312 312 311 307 305 303 297 291 289 288 287 291 297 298 298 294 285 279 279 280 281 283 282 281 284 287 286 287 290 292 291
228 235 244 253 264 280 313 360 21 27 27 24 20 13 7 359 351 343 337 334 333 333 335 340 344 344 342 342 340 337 332 328 326 327 328 328 326 323 321 319 317 316 314 313 314 315 313 310 307 301 293 287 286 288 293 297 295 295 295 291 287 285 284 282 282 281 281 283 288 290 293 292 288 284
219 225 234 244 254 284 72 65 55 46 38 30 22 15 10 4 359 354 349 344 342 342 343 343 343 343 344 342 338 333 330 328 328 328 328 326 324 323 322 321 319 318 315 314 316 317 316 313 312 310 301 289 285 288 291 291 290 291 292 295 296 295 290 285 281 279 279 280 286 295 302 300 288 275
210 213 220 217 160 115 93 74 59 49 39 29 21 15 9 5 3 1 359 355 349 345 342 341 342 344 345 341 336 331 330 331 331 330 328 326 325 324 322 320 317 316 314 315 317 320 321 319 315 311 303 292 288 288 286 285 289 294 298 302 303 299 293 288 283 280 278 278 284 297 306 309 300 281
200 201 193 158 133 110 88 71 59 47 34 25 18 13 8 4 2 1 1 359 353 346 343 342 344 346 346 344 340 335 332 333 333 331 329 327 325 323 321 318 317 317 317 317 319 322 325 323 315 307 300 294 291 289 286 286 291 298 304 309 310 302 294 290 287 285 282 278 284 296 306 313 313 298
183 176 157 141 123 99 79 67 54 40 29 20 13 8 6 3 2 2 2 0 357 354 351 348 348 350 349 347 344 340 337 336 335 333 332 330 327 324 323 322 322 322 320 320 321 323 325 324 317 309 303 298 293 289 288 290 295 301 306 309 309 300 293 289 287 287 283 276 277 285 297 317 326 307
169 159 146 133 111 89 73 59 44 31 22 15 8 4 3 3 3 3 2 0 359 358 357 355 354 354 352 349 346 344 342 339 337 336 335 334 330 327 326 326 326 326 325 325 327 328 328 329 325 317 311 306 299 295 296 298 302 306 307 306 302 297 293 289 286 282 269 259 263 258 238 210 344 317
162 150 139 127 105 83 65 46 32 22 16 10 5 1 1 3 3 2 1 359 359 359 358 357 356 355 353 350 347 345 344 341 340 340 339 337 334 332 330 329 330 331 331 331 331 331 331 333 332 327 322 316 309 306 308 309 307 307 309 305 300 299 298 290 280 261 228 225 235 217 185 162 307 294
154 143 138 127 103 77 52 32 21 12 7 5 1 359 0 2 1 360 359 358 359 359 358 358 357 356 355 352 349 347 348 347 346 346 344 340 337 335 333 333 334 335 335 335 335 335 337 341 343 340 335 330 324 319 317 315 312 311 311 305 299 308 327 328 294 246 214 190 172 161 149 144 218 200